Regional Weather Roundup
Issued by NWS

Home | Current Version | Previous Version | Graphics & Text | Print | Product List | Glossary On
Versions: 1 2 3 4 5 6 7 8 9 10 11 12 13 14 15 16 17 18 19 20 21 22 23 24 25 26 27 28 29 30 31 32 33 34 35 36 37 38 39 40 41 42 43 44 45 46 47 48 49 50
000
ASUS43 KOAX 010302
RWRNE

WEATHER ROUNDUP FOR NEBRASKA
NATIONAL WEATHER SERVICE OMAHA NE
900 PM CST SAT FEB 28 2015

NOTES: SATELLITE DATA IS BEING USED TO AUGMENT CLOUD COVER ABOVE
       12000 FEET.
       "FAIR" INDICATES FEW OR NO CLOUDS BELOW 12,000 FEET WITH NO
       SIGNIFICANT WEATHER AND/OR OBSTRUCTIONS TO VISIBILITY.

  * THESE STATIONS DO NOT REPORT WEATHER SUCH AS RAIN...SNOW OR FOG.

NEZ001>004-019>022-054>056-010400-
NEBRASKA PANHANDLE

CITY           SKY/WX    TMP DP  RH WIND       PRES   REMARKS
SCOTTSBLUFF    MOCLDY    23  11  60 NE8       30.07R WCI  14
ALLIANCE       MOCLDY    20  12  71 N8        30.07S WCI  10
CHADRON        CLEAR     20  13  74 CALM      30.12R
SIDNEY         PTCLDY    19  13  77 S5        30.07R WCI  12
$$

NEZ057>060-069>072-079>082-010400-
SOUTHWEST NEBRASKA

CITY           SKY/WX    TMP DP  RH WIND       PRES   REMARKS
NORTH PLATTE   PTCLDY    17  10  74 SE3       30.17S
IMPERIAL         N/A     16  10  77 SE7       30.11F WCI   6
LEXINGTON      CLEAR     16  11  81 S6        30.22R WCI   7
MCCOOK         CLOUDY    24  14  65 S7        30.20R WCI  16
$$

NEZ005>010-023>029-035>040-094-010400-
NORTH CENTRAL NEBRASKA

CITY           SKY/WX    TMP DP  RH WIND       PRES   REMARKS
VALENTINE      CLEAR     20   6  55 NW3       30.18R
AINSWORTH      PTCLDY    21   9  60 CALM      30.18R
BROKEN BOW     PTCLDY    19  11  70 SW5       30.20R WCI  12
ORD            CLEAR     18   9  68 S3        30.22R
$$

NEZ041-046>049-061>064-073>077-083>087-010400-
SOUTH CENTRAL NEBRASKA

CITY           SKY/WX    TMP DP  RH WIND       PRES   REMARKS
GRAND ISLAND   CLEAR     16  12  84 S8        30.28R WCI   5
HASTINGS       CLOUDY    18  14  84 S6        30.27S WCI  10
HEBRON         CLOUDY    20  16  81 CALM      30.33R
KEARNEY *      PTCLDY    18  10  73 S9        30.25R WCI   6
$$

NEZ011>018-030>034-042>045-010400-
NORTHEAST NEBRASKA

CITY           SKY/WX    TMP DP  RH WIND       PRES   REMARKS
NORFOLK        CLEAR     19  12  74 S13       30.26R WCI   6
BLAIR          FLURRIES  23  19  84 S8        30.32S WCI  14
COLUMBUS *     CLEAR     19   7  58 S10       30.31R WCI   8
FREMONT        FLURRIES  23  19  85 S5        30.33S WCI  17
$$

NEZ050>053-065>068-078-088>093-010400-
SOUTHEAST NEBRASKA

CITY           SKY/WX    TMP DP  RH WIND       PRES   REMARKS
LINCOLN        CLOUDY    22  15  75 S7        30.35F WCI  13
OMAHA EPPLEY   FLURRIES  23  19  85 S7        30.37R WCI  15
FALLS CITY     PTCLDY    18  14  84 SE3       30.37S
$$

NEZ044-045-051>053-067-010400-
OMAHA AREA

CITY           SKY/WX    TMP DP  RH WIND       PRES   REMARKS
OMAHA EPPLEY   FLURRIES  23  19  85 S7        30.37R WCI  15
BLAIR          FLURRIES  23  19  84 S8        30.32S WCI  14
FREMONT        FLURRIES  23  19  85 S5        30.33S WCI  17
OFFUTT AFB     CLOUDY    22  18  83 S7        30.35S WCI  14
$$


USA.gov is the U.S. government's official web portal to all federal, state and local government web resources and services.